FW5120 Weather Reports


time (UTC)temp
C
wind
direction
speed
KPH
gust
KPH
rain 1hr
cm
rain 24hr
cm
rain mn
cm
humidity
%
barometer
mb
20260507090100 14 250 1.6 4.8 0.15 0.64 0.64 95 1016.3
20260507084553 14 250 0.0 1.6 0.20 0.64 0.64 95 1016.2
20260507083047 14 250 0.0 3.2 0.20 0.58 0.58 95 1016.1
20260507081544 14 250 0.0 1.6 0.15 0.51 0.51 95 1016.0
20260507080041 14 250 0.0 1.6 0.13 0.48 0.48 95 1015.9
20260507074544 13 250 0.0 1.6 0.10 0.43 0.43 95 1015.8
20260507073035 13 250 0.0 1.6 0.10 0.38 0.38 94 1016.0
20260507071532 13 250 0.0 1.6 0.15 0.38 0.38 94 1015.7
20260507070030 13 250 0.0 1.6 0.25 0.36 0.36 94 1015.4
20260507064534 12 250 0.0 3.2 0.33 0.33 0.33 94 1015.4
20260507063031 12 250 0.0 1.6 0.28 0.28 0.28 94 1015.3
20260507061527 12 249 0.0 1.6 0.20 0.20 0.20 93 1015.3
20260507060029 12 249 0.0 3.2 0.10 0.10 0.10 93 1015.2
20260507054522 12 249 0.0 3.2 0.03 0.03 0.03 92 1014.9
20260507053021 12 249 0.0 3.2 0.00 0.00 0.00 92 1014.6
20260507051529 12 249 0.0 1.6 0.00 0.00 0.00 92 1014.5
20260507050018 12 249 0.0 1.6 0.00 0.00 0.00 93 1014.5
20260507044517 12 249 0.0 0.0 0.00 0.00 0.00 93 1014.1
20260507043015 12 249 0.0 1.6 0.00 0.00 0.00 93 1014.0
20260507041514 12 248 0.0 1.6 0.00 0.00 0.00 93 1014.0
20260507040013 11 248 1.6 3.2 0.00 0.00 0.00 93 1014.0
20260507034520 11 249 0.0 6.4 0.00 0.00 0.00 93 1013.9
20260507033013 11 207 0.0 4.8 0.00 0.00 0.00 93 1014.0
20260507031512 11 283 0.0 3.2 0.00 0.00 0.00 93 1014.0
20260507030017 11 283 0.0 1.6 0.00 0.00 0.00 92 1013.9
20260507024518 11 283 0.0 3.2 0.00 0.00 0.00 93 1013.7
20260507023010 11 275 0.0 3.2 0.00 0.00 0.00 93 1013.5
20260507021509 11 275 1.6 4.8 0.00 0.00 0.00 92 1013.6
20260507020009 11 252 0.0 0.0 0.00 0.00 0.00 92 1013.4
20260507014510 11 252 0.0 1.6 0.00 0.00 0.00 92 1013.5
20260507013007 11 252 0.0 3.2 0.00 0.00 0.00 92 1013.6
20260507011508 11 252 0.0 4.8 0.00 0.00 0.00 92 1013.3
20260507010010 11 257 0.0 0.0 0.00 0.00 0.00 92 1013.3
20260507004503 11 257 0.0 3.2 0.00 0.00 0.00 91 1013.3
20260507003001 11 257 1.6 4.8 0.00 0.00 0.00 91 1013.6
20260507001602 11 239 0.0 3.2 0.00 0.00 0.00 91 1013.7
20260507000105 11 332 0.0 3.2 0.00 0.00 0.00 91 1013.9
20260506234621 11 332 0.0 1.6 0.00 0.00 0.00 91 1013.7
20260506233104 12 332 0.0 3.2 0.00 0.00 0.00 90 1013.8
20260506231557 12 332 0.0 6.4 0.00 0.00 0.00 90 1013.9
20260506230054 12 165 3.2 4.8 0.00 0.00 0.00 90 1013.7
20260506224555 12 252 0.0 1.6 0.00 0.00 0.00 89 1013.9
20260506223057 12 252 0.0 3.2 0.00 0.00 0.00 88 1014.0
20260506221550 12 252 0.0 1.6 0.00 0.00 0.00 87 1013.9
20260506220050 13 252 1.6 3.2 0.00 0.00 0.00 85 1013.6
20260506214547 13 252 0.0 6.4 0.00 0.00 0.00 84 1013.5
20260506213044 13 261 0.0 6.4 0.00 0.00 0.00 83 1013.5
20260506211550 14 355 4.8 8.0 0.00 0.00 0.00 83 1013.2
20260506210043 14 240 3.2 12.9 0.00 0.00 0.00 85 1013.2
20260506204543 13 186 1.6 8.0 0.00 0.00 0.00 88 1013.0
20260506203042 13 188 3.2 4.8 0.00 0.00 0.00 87 1012.9
20260506201542 13 185 1.6 4.8 0.00 0.00 0.00 85 1012.8
20260506200041 14 182 0.0 4.8 0.00 0.00 0.00 84 1012.9
20260506194540 15 250 0.0 4.8 0.00 0.00 0.00 82 1013.0
20260506193039 16 276 3.2 8.0 0.00 0.00 0.00 80 1012.8
20260506191540 15 197 0.0 6.4 0.00 0.00 0.00 83 1012.6
20260506190038 15 236 0.0 4.8 0.00 0.00 0.00 85 1012.4
20260506184537 15 242 1.6 6.4 0.00 0.00 0.00 86 1012.1
20260506183037 15 257 0.0 1.6 0.00 0.00 0.00 84 1012.0
20260506181538 16 257 0.0 3.2 0.00 0.00 0.00 81 1012.0
20260506180036 17 257 0.0 3.2 0.00 0.00 0.00 79 1011.9
20260506174537 17 259 1.6 4.8 0.00 0.00 0.00 77 1011.9
20260506173035 18 263 1.6 6.4 0.00 0.00 0.00 74 1011.9
20260506171534 18 236 4.8 12.9 0.00 0.00 0.00 72 1011.9
20260506170033 19 258 6.4 11.3 0.00 0.00 0.00 70 1011.8
20260506164534 19 220 3.2 6.4 0.00 0.00 0.00 71 1011.7
20260506163034 19 255 1.6 9.7 0.00 0.00 0.00 71 1011.8
20260506161535 20 220 4.8 8.0 0.00 0.00 0.00 72 1011.8
20260506160030 20 209 3.2 9.7 0.00 0.00 0.00 71 1012.0
20260506154530 20 219 3.2 6.4 0.00 0.00 0.00 70 1012.2
20260506153040 20 227 4.8 11.3 0.00 0.00 0.00 68 1012.2
20260506151528 20 271 4.8 20.9 0.00 0.00 0.00 69 1012.2
20260506150028 20 207 3.2 16.1 0.00 0.00 0.00 68 1012.3
20260506144546 20 252 8.0 14.5 0.00 0.00 0.00 69 1012.2
20260506143026 21 49 1.6 19.3 0.00 0.00 0.00 68 1012.2
20260506141524 21 267 0.0 11.3 0.00 0.00 0.00 69 1012.5
20260506140035 19 236 3.2 12.9 0.00 0.00 0.00 71 1012.5
20260506134530 19 221 0.0 8.0 0.00 0.00 0.00 73 1012.4
20260506133022 19 232 3.2 8.0 0.00 0.00 0.00 72 1012.5
20260506131527 19 231 1.6 6.4 0.00 0.00 0.00 73 1012.6
20260506130018 19 257 4.8 11.3 0.00 0.00 0.00 72 1012.5
20260506124519 20 236 3.2 11.3 0.00 0.00 0.00 69 1012.5
20260506123028 20 256 3.2 9.7 0.00 0.00 0.00 68 1012.6
20260506121516 21 227 3.2 14.5 0.00 0.00 0.00 69 1012.6
20260506120024 20 240 3.2 14.5 0.00 0.00 0.00 69 1012.8
20260506114519 20 244 4.8 14.5 0.00 0.03 0.00 70 1012.9
20260506113012 19 244 6.4 14.5 0.00 0.03 0.00 71 1013.1
20260506111510 18 234 9.7 14.5 0.00 0.03 0.00 71 1013.3
20260506110010 18 248 4.8 11.3 0.00 0.03 0.00 72 1013.4
20260506104513 18 239 4.8 16.1 0.00 0.03 0.00 73 1013.5
20260506103010 18 288 6.4 20.9 0.00 0.03 0.00 70 1013.7
20260506101508 18 263 1.6 11.3 0.00 0.03 0.00 70 1013.9
20260506100016 17 258 3.2 12.9 0.00 0.03 0.00 71 1014.1
20260506094508 18 261 4.8 14.5 0.00 0.03 0.00 69 1014.2
20260506093007 18 246 4.8 11.3 0.00 0.03 0.00 71 1014.3
20260506091506 18 220 4.8 16.1 0.00 0.03 0.00 72 1014.3